Regional Weather Roundup
Issued by NWS Goodland, KS

Home | Current Version | Previous Version | Graphics & Text | Print | Product List | Glossary On
Versions: 1 2 3 4 5 6 7 8 9 10 11 12 13 14 15 16 17 18 19 20 21 22 23 24 25 26 27 28 29 30 31 32 33 34 35 36 37 38 39 40 41 42 43 44 45 46 47 48 49 50
000
ASUS43 KGLD 290959
RWRGLD

GOODLAND FORECAST AREA HOURLY WEATHER ROUNDUP
NATIONAL WEATHER SERVICE GOODLAND KS
400 AM MDT SUN MAR 29 2015

...OFFICIAL OBSERVATIONS...

CITY           SKY/WX    TMP DP  RH WIND       PRES   REMARKS
GOODLAND KS    PTCLDY    57  37  47 N26G35    29.97R
HILL CITY KS   PTCLDY    57  42  57 W7        29.86F
IMPERIAL NEB   PTCLDY    50  27  40 N13       30.03R
MCCOOK NEB     MOCLDY    60  31  33 N26G38    29.93R
AKRON CO       CLEAR     43  27  53 N12       30.10R
BURLINGTON CO  PTCLDY    55  32  41 N29G39    30.02R
LIMON CO       MOCLDY    47  29  49 N23G31    30.09R
$$

...UNOFFICIAL OBSERVATIONS...

CITY           SKY/WX    TMP DP  RH WIND       PRES   REMARKS
COLBY KS       CLEAR     61  43  51 N23G30    29.93R
GOVE KS          N/A     54  32  43 MISG        N/A
LENORA KS        N/A     53  32  45 MISG        N/A
NORTON KS      CLEAR     57  28  33 N18G28    29.87R
SHARON SPRINGS   N/A     62  34  35 N15         N/A
KIT CARSON CO    N/A     59  31  35 MISG        N/A
$$


USA.gov is the U.S. government's official web portal to all federal, state and local government web resources and services.